Theta_e
301 301 301 301 301 301 301 301 305 306 307 307 309 310 308 307 307 310 311 311 310 310 308 310 314 311 315 315 316 318 321 322 321 322 324 326 328 329 330 330 337 345 346 354 354
303 304 304 303 302 302 302 302 302 301 305 307 307 309 309 308 308 309 309 308 307 307 311 315 313 311 314 315 316 319 320 320 321 322 323 324 325 328 330 330 335 346 351 353 354
304 304 303 304 303 302 303 303 303 303 302 304 306 308 309 308 309 308 311 312 314 307 312 316 314 311 314 316 316 317 319 319 320 320 321 323 324 326 328 331 332 339 350 353 354
303 302 303 303 302 303 303 303 302 301 302 303 304 306 308 309 310 311 313 313 313 312 316 316 315 312 313 317 317 318 317 318 319 319 320 322 322 324 325 329 330 338 348 352 354
301 302 301 301 302 304 304 303 303 303 303 303 304 304 306 309 309 309 314 316 312 314 317 317 315 312 313 315 316 318 318 317 318 318 319 320 321 322 322 325 330 342 348 352 354
301 301 301 301 302 304 304 304 304 304 303 302 303 305 305 309 307 309 308 309 309 313 319 318 316 312 313 313 317 317 317 318 317 317 318 319 320 321 323 327 332 341 344 347 352
301 301 301 302 304 304 305 305 305 305 304 304 305 304 305 304 308 309 308 308 310 314 315 317 315 313 311 314 313 315 317 318 318 318 319 319 320 320 320 327 331 339 341 343 347
301 301 302 302 303 305 306 306 305 305 305 305 305 305 306 305 305 305 307 309 309 309 312 314 317 313 312 312 313 316 316 318 318 318 318 318 319 321 320 325 330 337 339 339 343
301 302 302 303 305 306 306 306 306 305 305 305 306 305 306 305 305 306 306 307 309 309 309 312 316 314 312 313 314 315 316 316 317 317 318 318 318 320 320 324 328 331 332 334 337
301 302 303 305 305 306 307 307 305 304 305 305 305 305 305 305 306 307 309 309 307 308 309 310 314 316 315 315 316 315 315 316 317 317 318 318 318 319 319 321 326 328 329 330 332
301 303 304 305 306 307 307 308 308 308 305 307 306 306 306 306 307 310 309 309 308 308 312 311 317 318 316 315 316 317 315 316 316 316 317 318 318 320 318 319 323 327 327 329 330
302 303 304 305 307 307 307 308 306 304 304 304 304 305 305 306 307 309 307 308 309 309 312 312 317 317 316 315 315 314 315 315 315 316 316 317 318 319 321 321 320 323 326 327 326
302 304 305 307 308 308 308 307 304 303 305 306 305 305 305 305 307 308 309 309 309 309 311 316 316 316 316 314 315 314 315 316 315 315 316 317 317 318 321 322 322 322 325 324 325
303 304 306 308 309 309 309 306 303 302 308 307 308 308 307 306 308 306 307 307 311 310 310 314 315 315 315 314 314 315 315 315 315 315 317 318 317 318 319 320 321 321 321 322 323
304 305 307 308 308 309 308 305 304 305 315 306 309 309 309 309 310 311 307 307 310 311 309 313 316 316 315 314 314 315 315 316 316 317 319 318 319 320 319 319 319 319 319 320 322
305 307 308 309 308 309 308 305 304 311 315 308 310 311 310 310 310 310 308 307 308 311 310 311 313 317 316 314 313 314 315 315 316 317 321 321 319 322 321 320 321 320 319 320 320
306 308 308 308 310 308 307 304 313 314 309 312 311 311 311 311 311 311 310 310 311 313 312 310 315 317 316 314 312 314 317 318 318 319 319 321 319 321 322 321 321 321 320 319 320
306 308 308 309 309 308 305 307 316 314 312 311 311 311 313 312 310 311 311 311 311 313 312 311 316 317 316 314 312 314 317 317 319 320 321 321 319 320 321 319 321 323 324 323 321
306 308 310 309 309 308 306 315 316 312 310 312 311 314 315 313 312 311 312 312 311 313 314 311 316 317 316 314 313 313 316 318 319 319 320 320 320 322 322 325 326 326 326 327 327
307 309 310 308 309 308 309 313 312 305 307 308 313 314 318 313 313 315 312 311 312 311 315 313 317 317 316 315 313 314 316 316 319 320 320 320 319 321 324 324 327 327 327 325 326
309 311 309 309 310 311 313 312 311 311 312 308 313 315 314 315 313 312 312 312 311 312 314 315 318 316 316 316 315 314 314 315 318 320 320 320 321 323 326 328 329 334 332 332 330
309 313 309 310 311 309 312 311 312 313 312 307 306 312 315 314 315 314 311 311 311 313 316 316 320 321 317 317 316 315 315 317 318 321 322 320 325 327 328 330 333 330 329 329 330
307 309 309 309 311 310 310 312 312 312 312 313 310 311 313 316 317 316 316 315 313 315 318 319 323 320 317 317 316 315 315 317 320 321 323 324 325 327 332 333 331 328 328 330 329
307 309 310 310 309 309 311 312 313 311 312 312 314 314 315 316 316 317 316 316 314 317 315 318 320 320 321 320 318 316 315 317 320 321 320 322 327 331 334 333 329 328 328 328 327
305 308 306 310 310 310 311 311 312 312 311 312 313 314 317 315 311 316 318 317 316 318 320 321 321 319 319 319 317 315 314 315 318 318 320 323 324 330 334 330 328 328 327 328 326
305 305 304 305 308 311 311 312 313 313 312 312 312 315 317 318 318 319 319 319 320 319 321 322 322 320 318 318 317 316 314 314 315 315 317 320 329 331 331 328 327 327 327 327 327
303 304 303 307 311 312 312 312 313 313 310 311 312 317 318 317 316 317 318 318 319 320 321 324 323 321 318 316 316 316 315 315 315 316 318 320 326 331 332 327 327 327 327 327 325
Wind_Speed
21 20 20 19 20 20 20 21 22 21 20 19 19 20 19 18 20 19 24 20 12 14 18 10 10 18 16 20 21 19 15 20 27 24 17 15 14 15 5 9 2 1 2 6 12
24 24 23 22 21 20 20 20 20 20 21 20 19 18 18 18 20 26 25 27 21 18 18 11 13 20 24 23 21 19 18 25 18 15 17 13 17 18 13 10 8 6 7 9 12
23 22 22 22 24 23 22 20 19 19 18 20 19 17 15 16 23 14 13 9 6 19 20 15 13 21 27 23 28 28 22 20 16 10 14 15 17 10 15 11 9 9 9 10 12
23 22 22 22 23 22 21 22 22 19 18 17 17 16 15 9 7 6 1 8 8 4 19 20 18 24 23 24 27 17 29 19 16 17 21 15 17 18 13 12 2 4 10 11 12
23 24 24 24 24 24 23 23 22 21 19 17 15 13 12 12 28 10 15 12 11 9 23 28 26 26 23 25 23 24 16 23 15 17 21 18 16 16 21 14 9 8 10 11 12
26 26 26 26 25 24 24 24 24 22 21 19 14 11 13 24 18 18 24 21 15 7 10 25 20 29 16 20 25 20 25 19 21 23 19 18 18 16 15 13 13 11 10 10 10
27 28 29 29 27 26 24 23 23 23 23 19 13 11 18 31 8 4 7 14 9 7 11 16 21 24 19 19 25 10 24 15 23 22 17 15 16 21 21 16 16 15 12 10 10
30 31 31 30 28 27 26 25 25 25 22 19 15 14 18 11 19 29 27 19 14 5 5 6 21 17 24 13 19 24 18 23 21 22 21 19 21 18 21 19 18 16 13 11 11
33 33 32 29 28 26 25 24 25 22 19 18 15 14 16 11 15 16 23 28 23 18 11 6 14 21 21 17 16 22 20 26 22 23 15 21 15 22 24 21 22 18 14 12 12
36 33 30 31 29 22 20 23 13 4 7 9 6 6 16 11 5 6 7 17 25 20 13 8 14 15 19 19 25 26 24 24 21 21 23 21 15 5 21 25 23 21 18 15 14
37 32 31 32 24 18 20 15 6 6 6 11 8 12 3 8 3 5 2 14 21 25 14 16 17 26 31 29 21 17 24 19 21 13 24 19 21 10 20 28 26 24 20 18 16
38 32 33 27 17 16 12 8 6 8 13 17 21 22 18 9 4 7 12 9 20 23 23 7 22 21 21 23 24 13 20 18 19 15 22 22 19 16 14 22 29 27 26 22 18
38 35 30 19 15 10 10 6 4 4 7 7 10 18 21 22 22 15 13 10 10 23 26 16 13 20 21 22 23 17 20 19 21 16 13 17 18 19 16 21 23 26 24 24 24
40 35 19 16 11 9 10 5 3 2 4 6 4 3 8 11 9 25 30 17 9 20 27 22 11 22 21 24 23 18 18 19 20 21 12 18 11 21 22 20 17 22 25 25 27
40 22 12 15 13 8 12 8 3 3 4 4 5 3 8 13 4 5 25 26 18 13 19 17 18 22 24 25 24 16 12 16 19 19 10 20 9 20 21 24 24 25 28 29 28
29 11 21 14 11 8 16 6 1 4 1 2 4 7 9 15 3 4 18 25 20 11 19 22 19 17 19 22 23 15 14 14 13 13 11 17 15 12 16 21 19 23 29 30 30
15 11 23 15 11 16 11 1 4 3 2 2 5 4 10 6 9 8 15 22 13 13 16 20 20 17 17 24 24 20 20 10 13 10 9 17 13 6 13 14 13 17 23 26 27
11 6 20 13 11 13 1 2 4 1 6 8 6 13 12 6 8 16 5 19 20 16 17 20 19 23 17 27 30 30 24 14 20 15 10 13 9 10 15 8 9 9 9 13 19
8 2 13 19 13 9 2 4 6 3 4 6 13 4 1 5 4 12 13 19 17 14 10 22 19 22 24 26 23 26 21 2 11 13 11 11 12 6 11 8 7 7 6 14 18
10 3 10 23 16 9 2 5 4 5 4 3 3 3 4 2 5 12 16 16 14 19 21 15 18 27 23 26 20 27 23 8 6 13 14 13 16 14 16 10 3 3 8 12 15
8 4 10 16 10 6 5 5 9 18 7 5 3 3 3 4 6 4 11 17 19 18 17 7 8 22 25 18 23 16 18 9 2 4 10 11 11 17 11 6 5 11 14 19 20
9 3 12 17 10 5 8 17 16 13 15 3 3 5 3 5 2 4 13 6 17 15 16 11 11 20 33 22 22 20 22 14 8 6 5 11 9 7 4 6 15 16 20 22 25
14 6 10 19 5 7 11 10 18 16 13 2 4 5 3 3 1 5 4 6 18 13 6 7 11 18 22 15 20 22 23 13 3 11 12 10 10 5 8 14 19 21 23 29 32
9 5 6 10 7 13 12 10 19 19 9 12 4 6 5 3 3 4 5 7 18 12 11 16 19 24 19 32 29 26 25 16 13 8 10 15 18 11 12 14 19 22 26 30 32
12 5 7 8 11 16 14 14 20 11 6 11 6 18 11 1 1 3 7 12 5 10 8 3 18 8 7 25 25 22 23 22 13 8 14 15 16 13 13 15 21 25 23 28 30
9 8 9 10 18 16 15 16 19 18 7 11 10 19 9 7 8 17 14 7 3 5 2 1 13 6 17 21 22 20 19 23 15 9 2 12 15 12 18 21 24 23 26 27 28
11 10 5 13 13 13 14 20 21 20 8 15 16 9 9 11 10 8 9 6 6 4 4 3 9 9 14 20 21 18 21 23 19 12 9 11 13 14 17 17 24 26 25 27 26
Wind_Direction
345 339 331 324 317 309 303 293 286 284 283 288 301 310 313 308 296 290 268 247 242 233 237 254 230 204 202 208 207 212 223 227 225 223 219 195 213 203 203 237 182 54 71 131 149
346 344 340 336 331 325 318 312 305 289 283 282 285 294 304 313 303 282 269 258 248 227 235 235 213 197 202 206 201 207 220 223 227 213 229 184 216 194 211 207 189 138 123 137 152
344 342 341 335 333 332 328 322 315 311 297 287 275 280 296 304 305 274 254 217 173 217 227 226 218 205 210 208 204 213 230 225 223 240 215 197 209 184 218 206 219 205 168 160 164
344 345 338 335 333 328 324 319 318 315 305 297 291 267 272 283 272 197 191 114 138 254 224 216 213 205 213 209 208 229 222 245 191 210 216 216 222 213 220 224 170 198 170 168 174
346 343 338 335 331 327 326 323 316 312 312 303 293 287 272 248 244 242 249 278 304 319 214 204 207 201 209 211 211 216 203 213 221 202 220 209 213 223 225 224 216 175 167 175 176
346 341 334 333 328 323 322 318 313 310 306 305 297 282 259 255 269 252 248 258 276 262 205 205 212 207 223 223 211 207 224 210 209 210 209 216 216 214 224 191 202 183 173 178 182
346 339 333 329 324 321 318 315 309 303 297 297 290 281 255 243 249 210 232 238 236 227 217 211 206 211 217 216 222 219 212 208 212 208 211 214 216 210 216 191 186 185 174 168 175
344 338 332 328 325 323 320 310 306 299 294 285 272 256 254 273 256 256 247 237 215 232 228 257 207 229 222 213 183 206 214 209 199 204 199 201 218 199 199 193 186 187 184 177 174
342 336 332 328 326 322 319 325 318 298 285 260 239 223 261 279 253 260 235 232 230 228 228 263 206 216 198 204 193 190 206 210 198 198 191 208 224 189 197 194 194 186 188 191 186
342 335 330 327 325 321 327 328 332 2 66 126 171 183 243 241 223 240 220 215 210 201 195 227 207 195 202 200 200 193 212 198 198 189 205 199 219 184 196 201 202 198 198 199 196
341 337 332 328 327 324 333 346 298 228 209 243 220 230 262 215 176 202 253 175 182 189 182 203 202 203 197 206 217 198 198 206 206 169 198 197 212 168 197 205 204 201 204 198 201
343 338 331 330 333 328 340 330 307 291 293 263 248 240 235 143 167 138 133 157 193 194 185 166 220 206 207 205 217 255 188 188 195 172 194 202 205 219 194 204 204 205 205 206 214
343 337 330 333 331 331 318 304 305 313 274 292 233 234 229 231 241 203 195 149 230 200 190 195 197 218 204 193 203 198 198 178 186 165 210 178 207 213 190 199 208 208 207 216 223
343 335 333 343 347 308 320 317 315 338 277 163 193 225 187 207 245 231 219 225 197 214 192 209 187 198 190 194 198 180 194 181 185 177 181 195 190 209 207 200 203 210 219 221 219
345 344 356 343 329 328 312 271 317 291 294 125 129 163 166 200 327 196 195 205 231 211 204 192 199 185 193 192 199 162 186 169 174 194 166 192 247 179 198 213 211 216 220 224 223
351 30 358 349 340 328 319 263 285 228 221 255 161 204 212 222 242 117 179 200 221 202 206 200 205 183 202 191 195 144 162 176 176 180 208 182 219 152 193 207 208 206 214 219 225
356 22 11 359 339 332 318 350 235 271 107 231 249 254 249 220 198 200 188 194 192 189 192 211 190 176 214 173 191 166 159 152 174 190 210 164 203 63 164 183 190 202 214 219 223
344 19 6 360 338 336 314 280 266 257 278 314 269 271 259 210 198 181 178 197 213 203 179 179 189 191 198 177 177 183 185 167 177 184 135 141 205 146 162 171 178 190 209 222 220
341 300 8 350 346 338 277 283 339 307 300 298 307 242 8 168 191 179 198 204 194 181 225 182 175 193 181 177 180 187 207 105 197 180 141 177 134 144 155 173 190 225 249 225 219
2 310 353 352 347 335 274 295 282 207 267 230 281 322 331 8 199 174 179 216 225 203 232 172 167 182 174 182 204 194 194 152 206 165 154 172 171 150 178 179 132 119 125 118 123
4 293 358 350 5 331 344 289 291 317 302 212 280 285 307 311 128 129 167 162 186 208 228 117 211 178 172 194 185 182 200 232 185 253 137 147 153 133 134 84 101 100 109 110 112
360 318 352 4 22 323 330 321 321 321 346 182 274 266 267 319 355 104 130 186 179 195 207 176 194 171 179 186 180 188 182 196 179 155 140 168 117 112 90 82 107 108 104 113 113
343 319 346 16 23 346 321 311 357 342 333 342 235 245 280 275 317 85 174 207 179 185 214 165 189 150 160 175 184 190 184 196 236 153 173 154 141 142 110 107 110 115 119 119 116
356 342 357 1 22 343 325 334 345 344 324 333 306 308 255 277 186 134 211 171 178 172 235 245 161 158 172 182 176 182 182 184 185 174 170 140 130 138 121 116 121 125 129 124 123
21 22 3 322 345 337 344 329 337 348 330 336 323 342 344 115 237 195 136 117 176 237 233 243 162 187 175 158 173 174 183 185 193 131 128 137 135 137 126 140 134 139 135 132 129
24 355 336 290 333 339 360 345 342 347 325 321 326 334 34 28 11 138 151 166 157 203 303 212 165 122 127 147 163 177 179 196 211 206 151 140 108 124 118 136 141 146 147 138 135
7 353 314 294 346 359 348 341 340 354 324 322 319 330 22 7 353 9 42 33 56 0 321 192 158 167 141 151 151 168 178 181 190 190 176 175 138 147 138 150 155 157 148 137 134